| time (UTC) | temp C | wind direction | speed KPH | gust KPH | rain 1hr cm | rain 24hr cm | rain mn cm | humidity % | barometer mb |
| 20260902164016 | 20 | 194 | 8.0 | 16.1 | 0.00 | 0.00 | 0.00 | 67 | 1019.8 |
| 20260902161015 | 20 | 232 | 11.3 | 4.8 | 0.00 | 0.00 | 0.00 | 66 | 1020.0 |
| 20260902154015 | 20 | 219 | 8.0 | 16.1 | 0.00 | 0.00 | 0.00 | 67 | 1020.1 |
| 20260902151015 | 20 | 221 | 6.4 | 12.9 | 0.00 | 0.00 | 0.00 | 68 | 1020.2 |
| 20260902144014 | 20 | 190 | 8.0 | 16.1 | 0.00 | 0.00 | 0.00 | 65 | 1020.3 |
| 20260902143514 | 20 | 217 | 8.0 | 16.1 | 0.00 | 0.00 | 0.00 | 63 | 1020.4 |
| 20260902143014 | 21 | 201 | 6.4 | 14.5 | 0.00 | 0.00 | 0.00 | 62 | 1020.3 |
| 20260902142514 | 21 | 204 | 9.7 | 17.7 | 0.00 | 0.00 | 0.00 | 61 | 1020.3 |
| 20260902142013 | 21 | 218 | 9.7 | 16.1 | 0.00 | 0.00 | 0.00 | 60 | 1020.4 |
| 20260902141513 | 21 | 242 | 9.7 | 14.5 | 0.00 | 0.00 | 0.00 | 60 | 1020.3 |
| 20260902141013 | 21 | 273 | 8.0 | 16.1 | 0.00 | 0.00 | 0.00 | 60 | 1020.2 |
| 20260902140513 | 21 | 212 | 8.0 | 12.9 | 0.00 | 0.00 | 0.00 | 60 | 1020.3 |
| 20260902140013 | 21 | 217 | 8.0 | 16.1 | 0.00 | 0.00 | 0.00 | 59 | 1020.3 |
| 20260902135512 | 21 | 273 | 9.7 | 17.7 | 0.00 | 0.00 | 0.00 | 58 | 1020.2 |
| 20260902134758 | 21 | 210 | 9.7 | 20.9 | 0.00 | 0.00 | 0.00 | 55 | 1020.2 |
| 20260902134257 | 21 | 222 | 12.9 | 20.9 | 0.00 | 0.00 | 0.00 | 56 | 1020.3 |
| 20260902133756 | 22 | 203 | 8.0 | 16.1 | 0.00 | 0.00 | 0.00 | 56 | 1020.2 |
| 20260902133256 | 22 | 277 | 8.0 | 19.3 | 0.00 | 0.00 | 0.00 | 56 | 1020.2 |
| 20260902132759 | 22 | 253 | 8.0 | 17.7 | 0.00 | 0.00 | 0.00 | 58 | 1020.2 |
| 20260902132256 | 22 | 233 | 8.0 | 14.5 | 0.00 | 0.00 | 0.00 | 61 | 1020.2 |
| 20260902131756 | 21 | 290 | 6.4 | 16.1 | 0.00 | 0.00 | 0.00 | 62 | 1020.2 |
| 20260902131255 | 21 | 200 | 9.7 | 16.1 | 0.00 | 0.00 | 0.00 | 62 | 1020.3 |
| 20260902130755 | 21 | 229 | 9.7 | 14.5 | 0.00 | 0.00 | 0.00 | 64 | 1020.2 |
| 20260902130255 | 21 | 224 | 8.0 | 16.1 | 0.00 | 0.00 | 0.00 | 66 | 1020.3 |
| 20260902125755 | 20 | 232 | 8.0 | 14.5 | 0.00 | 0.00 | 0.00 | 67 | 1020.3 |
| 20260902125254 | 20 | 218 | 9.7 | 20.9 | 0.00 | 0.00 | 0.00 | 66 | 1020.4 |
| 20260902124754 | 21 | 215 | 9.7 | 19.3 | 0.00 | 0.00 | 0.00 | 65 | 1020.3 |
| 20260902124254 | 21 | 177 | 8.0 | 16.1 | 0.00 | 0.00 | 0.00 | 65 | 1020.3 |
| 20260902123754 | 21 | 253 | 6.4 | 14.5 | 0.00 | 0.00 | 0.00 | 69 | 1020.3 |
| 20260902123253 | 20 | 236 | 8.0 | 14.5 | 0.00 | 0.00 | 0.00 | 69 | 1020.2 |
| 20260902122753 | 20 | 198 | 8.0 | 14.5 | 0.00 | 0.00 | 0.00 | 69 | 1020.4 |
| 20260902122253 | 20 | 219 | 8.0 | 14.5 | 0.00 | 0.00 | 0.00 | 70 | 1020.4 |
| 20260902121753 | 20 | 224 | 8.0 | 16.1 | 0.00 | 0.00 | 0.00 | 72 | 1020.3 |
| 20260902121253 | 20 | 228 | 8.0 | 14.5 | 0.00 | 0.00 | 0.00 | 72 | 1020.5 |
| 20260902120752 | 20 | 208 | 8.0 | 12.9 | 0.00 | 0.00 | 0.00 | 73 | 1020.5 |
| 20260902115739 | 19 | 214 | 6.4 | 17.7 | 0.00 | 0.00 | 0.00 | 74 | 1020.6 |
| 20260902115239 | 19 | 235 | 6.4 | 12.9 | 0.00 | 0.00 | 0.00 | 73 | 1020.5 |
| 20260902114739 | 20 | 221 | 8.0 | 17.7 | 0.00 | 0.00 | 0.00 | 72 | 1020.5 |
| 20260902114238 | 20 | 226 | 8.0 | 16.1 | 0.00 | 0.00 | 0.00 | 72 | 1020.6 |
| 20260902113620 | 20 | 181 | 4.8 | 11.3 | 0.00 | 0.00 | 0.00 | 70 | 1020.6 |
| 20260902113120 | 20 | 210 | 6.4 | 11.3 | 0.00 | 0.00 | 0.00 | 69 | 1020.5 |
| 20260902112552 | 20 | 295 | 4.8 | 9.7 | 0.00 | 0.00 | 0.00 | 70 | 1020.5 |
| 20260902111924 | 20 | 229 | 9.7 | 14.5 | 0.00 | 0.00 | 0.00 | 67 | 1020.6 |
| 20260902111404 | 21 | 211 | 6.4 | 14.5 | 0.00 | 0.00 | 0.00 | 67 | 1020.5 |
| 20260902110903 | 20 | 210 | 8.0 | 16.1 | 0.00 | 0.00 | 0.00 | 67 | 1020.5 |
| 20260902110403 | 21 | 218 | 11.3 | 17.7 | 0.00 | 0.00 | 0.00 | 67 | 1020.5 |
| 20260902105903 | 21 | 242 | 8.0 | 14.5 | 0.00 | 0.00 | 0.00 | 67 | 1020.4 |
| 20260902105403 | 20 | 215 | 9.7 | 17.7 | 0.00 | 0.00 | 0.00 | 67 | 1020.5 |
| 20260902104741 | 20 | 212 | 8.0 | 16.1 | 0.00 | 0.00 | 0.00 | 69 | 1020.4 |
| 20260902104241 | 21 | 203 | 8.0 | 14.5 | 0.00 | 0.00 | 0.00 | 69 | 1020.4 |
| 20260902103632 | 20 | 183 | 8.0 | 16.1 | 0.00 | 0.00 | 0.00 | 71 | 1020.4 |
| 20260902103128 | 20 | 169 | 8.0 | 16.1 | 0.00 | 0.00 | 0.00 | 71 | 1020.5 |
| 20260902102452 | 20 | 205 | 6.4 | 16.1 | 0.00 | 0.00 | 0.00 | 73 | 1020.5 |
| 20260902101915 | 20 | 201 | 8.0 | 14.5 | 0.00 | 0.00 | 0.00 | 74 | 1020.5 |
| 20260902101831 | 20 | 201 | 8.0 | 14.5 | 0.00 | 0.00 | 0.00 | 74 | 1020.5 |
| 20260902101209 | 20 | 186 | 9.7 | 17.7 | 0.00 | 0.00 | 0.00 | 74 | 1020.5 |
| 20260902100506 | 20 | 221 | 8.0 | 11.3 | 0.00 | 0.00 | 0.00 | 74 | 1020.5 |
| 20260902100006 | 20 | 207 | 6.4 | 12.9 | 0.00 | 0.00 | 0.00 | 75 | 1020.5 |
| 20260902095506 | 20 | 187 | 8.0 | 17.7 | 0.00 | 0.00 | 0.00 | 75 | 1020.4 |
| 20260902095005 | 20 | 232 | 9.7 | 19.3 | 0.00 | 0.00 | 0.00 | 75 | 1020.4 |
| 20260902094505 | 20 | 218 | 8.0 | 16.1 | 0.00 | 0.00 | 0.00 | 75 | 1020.4 |
| 20260902094005 | 20 | 218 | 9.7 | 14.5 | 0.00 | 0.00 | 0.00 | 76 | 1020.5 |
| 20260902093505 | 20 | 225 | 8.0 | 16.1 | 0.00 | 0.00 | 0.00 | 75 | 1020.5 |
| 20260902093004 | 20 | 200 | 4.8 | 12.9 | 0.00 | 0.00 | 0.00 | 76 | 1020.4 |
| 20260902092504 | 20 | 235 | 8.0 | 12.9 | 0.00 | 0.00 | 0.00 | 76 | 1020.5 |
| 20260902092004 | 20 | 215 | 6.4 | 11.3 | 0.00 | 0.00 | 0.00 | 76 | 1020.4 |
| 20260902091504 | 19 | 219 | 6.4 | 12.9 | 0.00 | 0.00 | 0.00 | 76 | 1020.4 |
| 20260902091004 | 19 | 210 | 6.4 | 12.9 | 0.00 | 0.00 | 0.00 | 77 | 1020.4 |
| 20260902090503 | 19 | 235 | 6.4 | 14.5 | 0.00 | 0.00 | 0.00 | 76 | 1020.4 |
| 20260902090004 | 19 | 174 | 6.4 | 12.9 | 0.00 | 0.00 | 0.00 | 77 | 1020.3 |
| 20260902085503 | 20 | 231 | 6.4 | 11.3 | 0.00 | 0.00 | 0.00 | 77 | 1020.2 |
| 20260902085003 | 19 | 124 | 4.8 | 12.9 | 0.00 | 0.00 | 0.00 | 76 | 1020.2 |
| 20260902084502 | 19 | 169 | 6.4 | 14.5 | 0.00 | 0.00 | 0.00 | 77 | 1020.2 |
| 20260902084002 | 19 | 210 | 6.4 | 11.3 | 0.00 | 0.00 | 0.00 | 77 | 1020.1 |
| 20260902083502 | 19 | 233 | 6.4 | 11.3 | 0.00 | 0.00 | 0.00 | 77 | 1020.1 |
| 20260902083002 | 19 | 211 | 6.4 | 11.3 | 0.00 | 0.00 | 0.00 | 77 | 1020.1 |
| 20260902082221 | 18 | 212 | 4.8 | 9.7 | 0.00 | 0.00 | 0.00 | 79 | 1020.1 |
| 20260902081721 | 18 | 118 | 4.8 | 12.9 | 0.00 | 0.00 | 0.00 | 79 | 1020.1 |
| 20260902081153 | 18 | 180 | 6.4 | 11.3 | 0.00 | 0.00 | 0.00 | 80 | 1020.1 |
| 20260902080653 | 18 | 183 | 6.4 | 11.3 | 0.00 | 0.00 | 0.00 | 80 | 1020.1 |
| 20260902080153 | 18 | 173 | 8.0 | 12.9 | 0.00 | 0.00 | 0.00 | 81 | 1020.1 |
| 20260902075653 | 18 | 177 | 6.4 | 12.9 | 0.00 | 0.00 | 0.00 | 81 | 1020.0 |
| 20260902075153 | 17 | 148 | 6.4 | 11.3 | 0.00 | 0.00 | 0.00 | 81 | 1019.9 |
| 20260902074652 | 17 | 212 | 4.8 | 8.0 | 0.00 | 0.00 | 0.00 | 82 | 1019.9 |
| 20260902074151 | 17 | 198 | 4.8 | 9.7 | 0.00 | 0.00 | 0.00 | 82 | 1019.8 |
| 20260902073651 | 17 | 143 | 6.4 | 11.3 | 0.00 | 0.00 | 0.00 | 83 | 1019.8 |
| 20260902073151 | 17 | 165 | 6.4 | 12.9 | 0.00 | 0.00 | 0.00 | 83 | 1019.8 |
| 20260902072651 | 17 | 188 | 6.4 | 14.5 | 0.00 | 0.00 | 0.00 | 84 | 1019.8 |
| 20260902072150 | 16 | 165 | 6.4 | 14.5 | 0.00 | 0.00 | 0.00 | 84 | 1019.9 |
| 20260902071650 | 16 | 177 | 4.8 | 8.0 | 0.00 | 0.00 | 0.00 | 85 | 1019.9 |
| 20260902071150 | 16 | 200 | 6.4 | 12.9 | 0.00 | 0.00 | 0.00 | 85 | 1019.9 |
| 20260902070650 | 16 | 167 | 4.8 | 11.3 | 0.00 | 0.00 | 0.00 | 85 | 1019.7 |
| 20260902070150 | 16 | 173 | 4.8 | 8.0 | 0.00 | 0.00 | 0.00 | 85 | 1019.8 |
| 20260902065649 | 16 | 180 | 6.4 | 11.3 | 0.00 | 0.00 | 0.00 | 85 | 1019.8 |
| 20260902065149 | 16 | 236 | 4.8 | 12.9 | 0.00 | 0.00 | 0.00 | 86 | 1019.8 |
| 20260902064649 | 16 | 170 | 4.8 | 9.7 | 0.00 | 0.00 | 0.00 | 87 | 1019.7 |
| 20260902064149 | 16 | 191 | 4.8 | 8.0 | 0.00 | 0.00 | 0.00 | 87 | 1019.9 |
| 20260902063648 | 15 | 139 | 3.2 | 8.0 | 0.00 | 0.00 | 0.00 | 87 | 1020.0 |
| 20260902063148 | 15 | 203 | 3.2 | 8.0 | 0.00 | 0.00 | 0.00 | 87 | 1019.8 |
| 20260902062940 | 15 | 177 | 3.2 | 8.0 | 0.00 | 0.00 | 0.00 | 87 | 1019.9 |
| 20260902062648 | 15 | 177 | 3.2 | 8.0 | 0.00 | 0.00 | 0.00 | 87 | 1019.9 |
| 20260902062148 | 15 | 142 | 4.8 | 8.0 | 0.00 | 0.00 | 0.00 | 87 | 1019.8 |
| 20260902061646 | 15 | 165 | 4.8 | 6.4 | 0.00 | 0.00 | 0.00 | 87 | 1019.8 |
| 20260902061146 | 15 | 159 | 4.8 | 9.7 | 0.00 | 0.00 | 0.00 | 87 | 1019.8 |
| 20260902060646 | 15 | 173 | 3.2 | 8.0 | 0.00 | 0.00 | 0.00 | 87 | 1019.9 |
| 20260902060146 | 15 | 153 | 4.8 | 8.0 | 0.00 | 0.00 | 0.00 | 87 | 1019.8 |
| 20260902055645 | 15 | 207 | 3.2 | 8.0 | 0.00 | 0.00 | 0.00 | 87 | 1019.8 |
| 20260902055145 | 15 | 201 | 3.2 | 4.8 | 0.00 | 0.00 | 0.00 | 87 | 1019.7 |
| 20260902054645 | 15 | 149 | 3.2 | 6.4 | 0.00 | 0.00 | 0.00 | 87 | 1019.7 |
| 20260902054144 | 15 | 143 | 3.2 | 8.0 | 0.00 | 0.00 | 0.00 | 87 | 1019.7 |
| 20260902053644 | 15 | 166 | 1.6 | 4.8 | 0.00 | 0.00 | 0.00 | 87 | 1019.7 |
| 20260902053144 | 15 | 201 | 1.6 | 3.2 | 0.00 | 0.00 | 0.00 | 87 | 1019.7 |
| 20260902052644 | 15 | 167 | 3.2 | 6.4 | 0.00 | 0.00 | 0.00 | 87 | 1019.7 |
| 20260902052142 | 15 | 167 | 1.6 | 4.8 | 0.00 | 0.00 | 0.00 | 87 | 1019.7 |
| 20260902051641 | 15 | 167 | 3.2 | 6.4 | 0.00 | 0.00 | 0.00 | 87 | 1019.7 |
| 20260902051141 | 15 | 174 | 1.6 | 8.0 | 0.00 | 0.00 | 0.00 | 86 | 1019.7 |
| 20260902050641 | 15 | 174 | 3.2 | 8.0 | 0.00 | 0.00 | 0.00 | 86 | 1019.7 |
| 20260902050140 | 15 | 188 | 3.2 | 6.4 | 0.00 | 0.00 | 0.00 | 86 | 1019.7 |
| 20260902045640 | 15 | 139 | 1.6 | 8.0 | 0.00 | 0.00 | 0.00 | 86 | 1019.6 |
| 20260902045140 | 15 | 145 | 1.6 | 6.4 | 0.00 | 0.00 | 0.00 | 86 | 1019.6 |
| 20260902044640 | 15 | 242 | 3.2 | 6.4 | 0.00 | 0.00 | 0.00 | 86 | 1019.7 |
| 20260902044140 | 15 | 197 | 3.2 | 6.4 | 0.00 | 0.00 | 0.00 | 86 | 1019.7 |
| 20260902043639 | 15 | 170 | 3.2 | 6.4 | 0.00 | 0.00 | 0.00 | 86 | 1019.6 |
| 20260902043139 | 15 | 198 | 3.2 | 6.4 | 0.00 | 0.00 | 0.00 | 86 | 1019.6 |
| 20260902042639 | 15 | 152 | 3.2 | 9.7 | 0.00 | 0.00 | 0.00 | 86 | 1019.6 |
| 20260902042139 | 15 | 176 | 3.2 | 8.0 | 0.00 | 0.00 | 0.00 | 86 | 1019.6 |
| 20260902041639 | 15 | 156 | 3.2 | 9.7 | 0.00 | 0.00 | 0.00 | 86 | 1019.6 |
| 20260902041138 | 15 | 163 | 3.2 | 6.4 | 0.00 | 0.00 | 0.00 | 86 | 1019.6 |
| 20260902040638 | 15 | 149 | 3.2 | 8.0 | 0.00 | 0.00 | 0.00 | 86 | 1019.6 |
| 20260902040138 | 15 | 165 | 1.6 | 4.8 | 0.00 | 0.00 | 0.00 | 86 | 1019.7 |
| 20260902035638 | 15 | 180 | 3.2 | 6.4 | 0.00 | 0.00 | 0.00 | 86 | 1019.8 |
| 20260902035137 | 15 | 191 | 3.2 | 8.0 | 0.00 | 0.00 | 0.00 | 85 | 1019.7 |
| 20260902034637 | 15 | 163 | 3.2 | 9.7 | 0.00 | 0.00 | 0.00 | 85 | 1019.8 |
| 20260902034137 | 15 | 172 | 3.2 | 8.0 | 0.00 | 0.00 | 0.00 | 85 | 1019.8 |
| 20260902033637 | 15 | 176 | 3.2 | 6.4 | 0.00 | 0.00 | 0.00 | 85 | 1019.8 |
| 20260902033136 | 15 | 139 | 3.2 | 6.4 | 0.00 | 0.00 | 0.00 | 85 | 1019.8 |
| 20260902032636 | 15 | 172 | 1.6 | 6.4 | 0.00 | 0.00 | 0.00 | 85 | 1019.8 |
| 20260902032136 | 15 | 138 | 0.0 | 3.2 | 0.00 | 0.00 | 0.00 | 85 | 1019.8 |
| 20260902031636 | 15 | 163 | 1.6 | 4.8 | 0.00 | 0.00 | 0.00 | 85 | 1019.9 |
| 20260902031136 | 15 | 132 | 1.6 | 4.8 | 0.00 | 0.00 | 0.00 | 85 | 1019.9 |
| 20260902030635 | 15 | 169 | 1.6 | 4.8 | 0.00 | 0.00 | 0.00 | 85 | 1019.9 |
| 20260902030135 | 15 | 142 | 1.6 | 4.8 | 0.00 | 0.00 | 0.00 | 85 | 1020.0 |
| 20260902025635 | 15 | 96 | 0.0 | 0.0 | 0.00 | 0.00 | 0.00 | 85 | 1020.0 |
| 20260902025135 | 15 | 121 | 0.0 | 3.2 | 0.00 | 0.00 | 0.00 | 85 | 1020.0 |
| 20260902024634 | 15 | 124 | 1.6 | 4.8 | 0.00 | 0.00 | 0.00 | 85 | 1020.1 |
| 20260902024134 | 15 | 149 | 3.2 | 6.4 | 0.00 | 0.00 | 0.00 | 85 | 1020.1 |
| 20260902023634 | 15 | 153 | 3.2 | 6.4 | 0.00 | 0.00 | 0.00 | 85 | 1020.1 |
| 20260902023134 | 15 | 179 | 3.2 | 6.4 | 0.00 | 0.00 | 0.00 | 85 | 1020.2 |
| 20260902022633 | 15 | 160 | 3.2 | 4.8 | 0.00 | 0.00 | 0.00 | 85 | 1020.2 |
| 20260902022133 | 15 | 162 | 1.6 | 4.8 | 0.00 | 0.00 | 0.00 | 85 | 1020.2 |
| 20260902021633 | 15 | 211 | 1.6 | 4.8 | 0.00 | 0.00 | 0.00 | 85 | 1020.1 |
| 20260902021133 | 15 | 103 | 1.6 | 3.2 | 0.00 | 0.00 | 0.00 | 85 | 1020.1 |
| 20260902020633 | 15 | 113 | 0.0 | 0.0 | 0.00 | 0.00 | 0.00 | 85 | 1020.2 |
| 20260902020132 | 15 | 113 | 0.0 | 0.0 | 0.00 | 0.00 | 0.00 | 85 | 1020.2 |
| 20260902015631 | 15 | 113 | 0.0 | 0.0 | 0.00 | 0.00 | 0.00 | 85 | 1020.3 |
| 20260902015130 | 15 | 169 | 0.0 | 3.2 | 0.00 | 0.00 | 0.00 | 85 | 1020.3 |
| 20260902014630 | 15 | 158 | 1.6 | 4.8 | 0.00 | 0.00 | 0.00 | 85 | 1020.3 |
| 20260902014130 | 15 | 146 | 1.6 | 4.8 | 0.00 | 0.00 | 0.00 | 85 | 1020.4 |
| 20260902013630 | 15 | 152 | 0.0 | 0.0 | 0.00 | 0.00 | 0.00 | 85 | 1020.4 |
| 20260902013129 | 15 | 167 | 1.6 | 4.8 | 0.00 | 0.00 | 0.00 | 85 | 1020.4 |
| 20260902012629 | 15 | 173 | 1.6 | 4.8 | 0.00 | 0.00 | 0.00 | 85 | 1020.4 |
| 20260902012129 | 15 | 169 | 0.0 | 3.2 | 0.00 | 0.00 | 0.00 | 85 | 1020.3 |
| 20260902011629 | 15 | 165 | 1.6 | 3.2 | 0.00 | 0.00 | 0.00 | 85 | 1020.4 |
| 20260902011128 | 15 | 143 | 1.6 | 3.2 | 0.00 | 0.00 | 0.00 | 85 | 1020.3 |
| 20260902010628 | 15 | 177 | 1.6 | 4.8 | 0.00 | 0.00 | 0.00 | 85 | 1020.4 |
| 20260902010128 | 15 | 170 | 1.6 | 3.2 | 0.00 | 0.00 | 0.00 | 85 | 1020.4 |
| 20260902005628 | 15 | 179 | 1.6 | 3.2 | 0.00 | 0.00 | 0.00 | 85 | 1020.4 |
| 20260902005127 | 15 | 177 | 1.6 | 4.8 | 0.00 | 0.00 | 0.00 | 85 | 1020.3 |
| 20260902004627 | 15 | 142 | 0.0 | 1.6 | 0.00 | 0.00 | 0.00 | 84 | 1020.3 |
| 20260902004127 | 15 | 158 | 0.0 | 1.6 | 0.00 | 0.00 | 0.00 | 84 | 1020.5 |
| 20260902003627 | 15 | 172 | 1.6 | 4.8 | 0.00 | 0.00 | 0.00 | 84 | 1020.5 |
| 20260902003127 | 15 | 170 | 1.6 | 3.2 | 0.00 | 0.00 | 0.00 | 84 | 1020.5 |
| 20260902002626 | 15 | 188 | 1.6 | 4.8 | 0.00 | 0.00 | 0.00 | 84 | 1020.5 |
| 20260902002126 | 15 | 172 | 3.2 | 4.8 | 0.00 | 0.00 | 0.00 | 84 | 1020.5 |
| 20260902001626 | 15 | 153 | 1.6 | 3.2 | 0.00 | 0.00 | 0.00 | 84 | 1020.5 |
| 20260902001126 | 15 | 190 | 0.0 | 3.2 | 0.00 | 0.00 | 0.00 | 84 | 1020.5 |
| 20260902000625 | 15 | 156 | 0.0 | 1.6 | 0.00 | 0.00 | 0.00 | 84 | 1020.5 |
| 20260902000125 | 15 | 177 | 1.6 | 4.8 | 0.00 | 0.00 | 0.00 | 84 | 1020.5 |
| 20260901235625 | 15 | 162 | 0.0 | 0.0 | 0.00 | 0.00 | 0.00 | 84 | 1020.5 |
| 20260901235125 | 15 | 170 | 1.6 | 3.2 | 0.00 | 0.00 | 0.00 | 84 | 1020.6 |
| 20260901234625 | 15 | 179 | 0.0 | 3.2 | 0.00 | 0.00 | 0.00 | 84 | 1020.6 |
| 20260901234124 | 15 | 138 | 0.0 | 0.0 | 0.00 | 0.00 | 0.00 | 84 | 1020.6 |
| 20260901233624 | 15 | 177 | 0.0 | 3.2 | 0.00 | 0.00 | 0.00 | 84 | 1020.6 |
| 20260901233124 | 15 | 156 | 1.6 | 3.2 | 0.00 | 0.00 | 0.00 | 84 | 1020.7 |
| 20260901232624 | 15 | 197 | 0.0 | 1.6 | 0.00 | 0.00 | 0.00 | 84 | 1020.7 |
| 20260901232123 | 15 | 143 | 0.0 | 3.2 | 0.00 | 0.00 | 0.00 | 84 | 1020.7 |
| 20260901231623 | 15 | 172 | 1.6 | 4.8 | 0.00 | 0.00 | 0.00 | 84 | 1020.8 |
| 20260901231123 | 15 | 152 | 1.6 | 4.8 | 0.00 | 0.00 | 0.00 | 84 | 1020.9 |
| 20260901230623 | 15 | 172 | 1.6 | 4.8 | 0.00 | 0.00 | 0.00 | 84 | 1020.9 |
| 20260901230122 | 15 | 169 | 1.6 | 3.2 | 0.00 | 0.00 | 0.00 | 84 | 1020.9 |
| 20260901225622 | 15 | 179 | 0.0 | 3.2 | 0.00 | 0.00 | 0.00 | 84 | 1020.9 |
| 20260901225122 | 15 | 193 | 1.6 | 3.2 | 0.00 | 0.00 | 0.00 | 84 | 1020.8 |
| 20260901224622 | 15 | 117 | 0.0 | 1.6 | 0.00 | 0.00 | 0.00 | 84 | 1020.8 |
| 20260901224121 | 15 | 141 | 0.0 | 1.6 | 0.00 | 0.00 | 0.00 | 84 | 1020.8 |
| 20260901223621 | 15 | 121 | 0.0 | 3.2 | 0.00 | 0.00 | 0.00 | 83 | 1020.9 |
| 20260901223121 | 15 | 142 | 0.0 | 0.0 | 0.00 | 0.00 | 0.00 | 83 | 1021.0 |
| 20260901222621 | 15 | 142 | 0.0 | 0.0 | 0.00 | 0.00 | 0.00 | 83 | 1021.0 |
| 20260901222121 | 15 | 142 | 0.0 | 0.0 | 0.00 | 0.00 | 0.00 | 83 | 1020.9 |
| 20260901221620 | 15 | 142 | 0.0 | 0.0 | 0.00 | 0.00 | 0.00 | 83 | 1020.9 |
| 20260901221120 | 15 | 142 | 0.0 | 0.0 | 0.00 | 0.00 | 0.00 | 83 | 1020.9 |
| 20260901220620 | 15 | 142 | 0.0 | 0.0 | 0.00 | 0.00 | 0.00 | 83 | 1020.9 |
| 20260901220120 | 15 | 136 | 0.0 | 3.2 | 0.00 | 0.00 | 0.25 | 83 | 1020.9 |
| 20260901215619 | 15 | 160 | 0.0 | 3.2 | 0.00 | 0.00 | 0.25 | 83 | 1020.8 |
| 20260901215119 | 15 | 56 | 0.0 | 0.0 | 0.00 | 0.00 | 0.25 | 83 | 1020.7 |
| 20260901214619 | 15 | 148 | 0.0 | 3.2 | 0.00 | 0.00 | 0.25 | 83 | 1020.8 |
| 20260901214119 | 15 | 115 | 0.0 | 4.8 | 0.00 | 0.00 | 0.25 | 82 | 1020.9 |
| 20260901213619 | 15 | 162 | 1.6 | 3.2 | 0.00 | 0.00 | 0.25 | 82 | 1021.0 |
| 20260901213118 | 15 | 118 | 0.0 | 0.0 | 0.00 | 0.00 | 0.25 | 82 | 1021.3 |
| 20260901212618 | 15 | 118 | 0.0 | 0.0 | 0.00 | 0.00 | 0.25 | 81 | 1021.4 |
| 20260901212118 | 15 | 118 | 0.0 | 0.0 | 0.00 | 0.00 | 0.25 | 81 | 1021.3 |
| 20260901211618 | 15 | 118 | 0.0 | 0.0 | 0.00 | 0.00 | 0.25 | 81 | 1021.4 |
| 20260901211117 | 15 | 118 | 0.0 | 0.0 | 0.00 | 0.00 | 0.25 | 81 | 1021.4 |
| 20260901210617 | 15 | 118 | 0.0 | 0.0 | 0.00 | 0.00 | 0.25 | 80 | 1021.5 |
| 20260901210117 | 15 | 118 | 0.0 | 0.0 | 0.00 | 0.00 | 0.25 | 80 | 1021.4 |
| 20260901205617 | 15 | 118 | 0.0 | 0.0 | 0.00 | 0.00 | 0.25 | 80 | 1021.5 |
| 20260901205116 | 15 | 118 | 0.0 | 0.0 | 0.00 | 0.00 | 0.25 | 79 | 1021.5 |
| 20260901204616 | 15 | 118 | 0.0 | 0.0 | 0.00 | 0.00 | 0.25 | 79 | 1021.4 |
| 20260901204116 | 15 | 118 | 0.0 | 0.0 | 0.00 | 0.00 | 0.25 | 79 | 1021.5 |
| 20260901203616 | 16 | 118 | 0.0 | 0.0 | 0.00 | 0.00 | 0.25 | 78 | 1021.4 |
| 20260901203116 | 15 | 118 | 0.0 | 0.0 | 0.00 | 0.00 | 0.25 | 78 | 1021.3 |
| 20260901202615 | 16 | 118 | 0.0 | 0.0 | 0.00 | 0.00 | 0.25 | 77 | 1021.4 |
| 20260901202115 | 16 | 118 | 0.0 | 0.0 | 0.00 | 0.00 | 0.25 | 77 | 1021.3 |
| 20260901201615 | 16 | 118 | 0.0 | 0.0 | 0.00 | 0.00 | 0.25 | 76 | 1021.3 |
| 20260901201115 | 16 | 118 | 0.0 | 0.0 | 0.00 | 0.00 | 0.25 | 76 | 1021.3 |
| 20260901200614 | 16 | 118 | 0.0 | 0.0 | 0.00 | 0.00 | 0.25 | 75 | 1021.4 |
| 20260901200114 | 16 | 118 | 0.0 | 0.0 | 0.00 | 0.00 | 0.25 | 75 | 1021.3 |
| 20260901195614 | 16 | 118 | 0.0 | 0.0 | 0.00 | 0.00 | 0.25 | 74 | 1021.2 |
| 20260901195114 | 16 | 118 | 0.0 | 0.0 | 0.00 | 0.00 | 0.25 | 74 | 1021.1 |
| 20260901194614 | 16 | 118 | 0.0 | 0.0 | 0.00 | 0.00 | 0.25 | 73 | 1021.1 |
| 20260901194113 | 17 | 118 | 0.0 | 0.0 | 0.00 | 0.00 | 0.25 | 72 | 1021.0 |
| 20260901193613 | 17 | 118 | 0.0 | 0.0 | 0.00 | 0.00 | 0.25 | 71 | 1020.9 |
| 20260901193113 | 17 | 118 | 0.0 | 0.0 | 0.00 | 0.00 | 0.25 | 71 | 1021.0 |
| 20260901192613 | 17 | 118 | 0.0 | 0.0 | 0.00 | 0.00 | 0.25 | 70 | 1021.0 |
| 20260901192112 | 17 | 118 | 0.0 | 0.0 | 0.00 | 0.00 | 0.25 | 70 | 1021.0 |
| 20260901191612 | 20 | 205 | 9.7 | 14.5 | 0.00 | 0.00 | 0.25 | 55 | 1021.1 |
| 20260901191112 | 20 | 205 | 9.7 | 14.5 | 0.00 | 0.00 | 0.25 | 55 | 1021.1 |
| 20260901190612 | 20 | 205 | 9.7 | 14.5 | 0.00 | 0.00 | 0.25 | 55 | 1021.1 |
| 20260901190111 | 20 | 205 | 9.7 | 14.5 | 0.00 | 0.00 | 0.25 | 55 | 1021.1 |
| 20260901185611 | 20 | 205 | 9.7 | 14.5 | 0.00 | 0.00 | 0.25 | 55 | 1021.1 |
| 20260901185111 | 20 | 205 | 9.7 | 14.5 | 0.00 | 0.00 | 0.25 | 55 | 1021.1 |
| 20260901184611 | 20 | 205 | 9.7 | 14.5 | 0.00 | 0.00 | 0.25 | 55 | 1021.1 |
| 20260901184111 | 20 | 205 | 9.7 | 14.5 | 0.00 | 0.00 | 0.25 | 55 | 1021.1 |
| 20260901183610 | 20 | 205 | 9.7 | 14.5 | 0.00 | 0.00 | 0.25 | 55 | 1021.1 |
| 20260901183110 | 20 | 205 | 9.7 | 14.5 | 0.00 | 0.00 | 0.25 | 55 | 1021.1 |
| 20260901182610 | 20 | 205 | 9.7 | 14.5 | 0.00 | 0.00 | 0.25 | 55 | 1021.1 |
| 20260901182110 | 20 | 205 | 9.7 | 14.5 | 0.00 | 0.00 | 0.25 | 55 | 1021.1 |
| 20260901181610 | 20 | 205 | 9.7 | 14.5 | 0.00 | 0.00 | 0.25 | 55 | 1021.1 |
| 20260901181109 | 20 | 205 | 9.7 | 14.5 | 0.00 | 0.00 | 0.25 | 55 | 1021.1 |
| 20260901180609 | 20 | 205 | 9.7 | 14.5 | 0.00 | 0.00 | 0.25 | 55 | 1021.1 |
| 20260901180109 | 20 | 205 | 9.7 | 14.5 | 0.00 | 0.00 | 0.25 | 55 | 1021.1 |
| 20260901175608 | 20 | 205 | 9.7 | 14.5 | 0.00 | 0.00 | 0.25 | 55 | 1021.1 |
| 20260901175108 | 20 | 205 | 9.7 | 14.5 | 0.00 | 0.00 | 0.25 | 55 | 1021.1 |
| 20260901174608 | 20 | 205 | 9.7 | 14.5 | 0.00 | 0.00 | 0.25 | 55 | 1021.1 |
| 20260901174108 | 20 | 205 | 9.7 | 14.5 | 0.00 | 0.00 | 0.25 | 55 | 1021.1 |
| 20260901173608 | 20 | 205 | 9.7 | 14.5 | 0.00 | 0.00 | 0.25 | 55 | 1021.1 |
| 20260901173107 | 20 | 205 | 9.7 | 14.5 | 0.00 | 0.00 | 0.25 | 55 | 1021.1 |
| 20260901172607 | 20 | 205 | 9.7 | 14.5 | 0.00 | 0.00 | 0.25 | 55 | 1021.1 |
| 20260901172107 | 20 | 205 | 9.7 | 14.5 | 0.00 | 0.00 | 0.25 | 55 | 1021.1 |
| 20260901171607 | 20 | 205 | 9.7 | 14.5 | 0.00 | 0.00 | 0.25 | 55 | 1021.1 |
| 20260901171107 | 20 | 205 | 9.7 | 14.5 | 0.00 | 0.00 | 0.25 | 55 | 1021.1 |
| 20260901170606 | 20 | 205 | 9.7 | 14.5 | 0.00 | 0.00 | 0.25 | 55 | 1021.1 |